TimeCST,TemperatureF,Dew PointF,Humidity,Sea Level PressureIn,VisibilityMPH,Wind Direction,Wind SpeedMPH,Gust SpeedMPH,PrecipitationIn,Events,Conditions,WindDirDegrees,DateUTC
12:15 AM,42.8,30.2,61,29.63,10.0,ENE,13.8,24.2,N/A,,Overcast,60,2013-02-26 06:15:00
12:35 AM,42.8,30.2,61,29.61,10.0,ENE,13.8,23.0,N/A,,Overcast,60,2013-02-26 06:35:00
12:55 AM,42.8,30.2,61,29.58,10.0,ENE,13.8,21.9,N/A,,Overcast,60,2013-02-26 06:55:00
1:15 AM,42.8,30.2,61,29.57,10.0,ENE,18.4,24.2,N/A,,Overcast,60,2013-02-26 07:15:00
1:35 AM,42.8,30.2,61,29.56,10.0,ENE,17.3,24.2,N/A,,Overcast,60,2013-02-26 07:35:00
1:55 AM,41.0,32.0,70,29.56,7.0,ENE,15.0,21.9,N/A,Rain-Thunderstorm,Thunderstorms and Rain,60,2013-02-26 07:55:00
2:15 AM,39.2,33.8,81,29.55,7.0,ENE,13.8,19.6,0.06,Rain,Rain,70,2013-02-26 08:15:00
2:35 AM,37.4,35.6,93,29.53,4.0,ENE,16.1,23.0,0.18,Rain,Heavy Rain,70,2013-02-26 08:35:00
2:55 AM,37.4,35.6,93,29.50,4.0,ENE,15.0,24.2,0.03,Rain,Heavy Rain,60,2013-02-26 08:55:00
3:15 AM,37.4,35.6,93,29.48,7.0,NE,17.3,26.5,0.09,Rain,Rain,50,2013-02-26 09:15:00
3:35 AM,37.4,35.6,93,29.46,7.0,ENE,21.9,28.8,0.15,Rain,Rain,70,2013-02-26 09:35:00
3:55 AM,37.4,37.4,100,29.46,5.0,ENE,18.4,26.5,0.03,Rain,Rain,70,2013-02-26 09:55:00
4:15 AM,37.4,37.4,100,29.46,5.0,ENE,19.6,27.6,0.10,Rain,Rain,70,2013-02-26 10:15:00
4:35 AM,37.4,37.4,100,29.47,7.0,East,17.3,24.2,0.12,Rain,Rain,90,2013-02-26 10:35:00
4:55 AM,37.4,37.4,100,29.45,4.0,ENE,24.2,33.4,0.01,Rain,Light Rain,70,2013-02-26 10:55:00
5:15 AM,37.4,37.4,100,29.45,3.0,ENE,16.1,-,0.01,Rain,Light Rain,70,2013-02-26 11:15:00
5:35 AM,39.2,39.2,100,29.44,4.0,East,13.8,-,0.01,,Light Drizzle,80,2013-02-26 11:35:00
5:55 AM,39.2,39.2,100,29.43,5.0,East,12.7,-,N/A,,Overcast,80,2013-02-26 11:55:00
6:35 AM,39.2,39.2,100,29.42,10.0,East,12.7,16.1,N/A,,Light Drizzle,90,2013-02-26 12:35:00
6:55 AM,39.2,39.2,100,29.42,10.0,East,15.0,20.7,N/A,Rain,Light Rain,80,2013-02-26 12:55:00
7:15 AM,39.2,39.2,100,29.41,7.0,East,15.0,-,N/A,,Overcast,80,2013-02-26 13:15:00
7:35 AM,39.2,39.2,100,29.41,5.0,East,13.8,-,N/A,Rain,Rain,80,2013-02-26 13:35:00
7:55 AM,39.2,39.2,100,29.40,5.0,ENE,12.7,17.3,N/A,,Light Drizzle,70,2013-02-26 13:55:00
8:15 AM,39.2,39.2,100,29.40,5.0,East,10.4,17.3,N/A,,Drizzle,80,2013-02-26 14:15:00
8:35 AM,39.2,39.2,100,29.40,3.0,East,13.8,-,N/A,,Drizzle,80,2013-02-26 14:35:00
8:55 AM,41.0,41.0,100,29.40,2.5,East,11.5,-,0.01,Rain,Light Rain,80,2013-02-26 14:55:00
9:15 AM,41.0,41.0,100,29.40,4.0,East,9.2,-,0.03,Rain,Rain,90,2013-02-26 15:15:00
9:35 AM,41.0,41.0,100,29.39,7.0,East,8.1,-,0.04,Rain,Light Rain,90,2013-02-26 15:35:00
9:55 AM,42.8,42.8,100,29.39,7.0,East,9.2,-,N/A,Rain,Light Rain,90,2013-02-26 15:55:00
10:15 AM,42.8,42.8,100,29.38,7.0,East,9.2,-,0.01,Rain,Light Rain,90,2013-02-26 16:15:00
10:35 AM,42.8,42.8,100,29.38,7.0,East,5.8,-,0.01,Rain,Light Rain,90,2013-02-26 16:35:00
10:55 AM,42.8,42.8,100,29.39,7.0,ESE,3.5,-,0.01,Rain,Rain,110,2013-02-26 16:55:00
11:15 AM,42.8,42.8,100,29.39,7.0,East,3.5,-,0.03,Rain,Light Rain,100,2013-02-26 17:15:00
11:35 AM,42.8,42.8,100,29.38,7.0,East,4.6,-,0.04,Rain,Light Rain,80,2013-02-26 17:35:00
11:55 AM,42.8,42.8,100,29.38,7.0,Calm,Calm,-,N/A,Rain,Light Rain,0,2013-02-26 17:55:00
12:15 PM,42.8,42.8,100,29.38,5.0,Calm,Calm,-,N/A,,Overcast,0,2013-02-26 18:15:00
12:35 PM,46.4,44.6,93,29.37,7.0,Calm,Calm,-,N/A,,Overcast,0,2013-02-26 18:35:00
12:55 PM,46.4,44.6,93,29.36,7.0,SSE,3.5,-,N/A,,Overcast,150,2013-02-26 18:55:00
1:15 PM,48.2,46.4,93,29.36,10.0,South,3.5,-,N/A,,Mostly Cloudy,180,2013-02-26 19:15:00
1:35 PM,51.8,46.4,82,29.36,10.0,South,5.8,-,N/A,,Mostly Cloudy,170,2013-02-26 19:35:00
1:55 PM,48.2,44.6,87,29.36,10.0,SSW,8.1,-,N/A,,Overcast,200,2013-02-26 19:55:00
2:15 PM,48.2,44.6,87,29.37,10.0,SW,4.6,-,N/A,,Overcast,220,2013-02-26 20:15:00
2:35 PM,50.0,44.6,82,29.37,10.0,SW,5.8,-,N/A,,Mostly Cloudy,220,2013-02-26 20:35:00
2:55 PM,50.0,44.6,82,29.38,10.0,WSW,5.8,-,N/A,,Mostly Cloudy,250,2013-02-26 20:55:00
3:15 PM,51.8,44.6,76,29.39,10.0,SW,3.5,-,N/A,,Mostly Cloudy,220,2013-02-26 21:15:00
3:35 PM,50.0,42.8,76,29.39,10.0,SSW,9.2,-,N/A,,Mostly Cloudy,210,2013-02-26 21:35:00
3:55 PM,44.6,42.8,93,29.41,5.0,SW,9.2,20.7,N/A,Rain,Rain,220,2013-02-26 21:55:00
4:15 PM,44.6,42.8,93,29.41,10.0,Calm,Calm,-,0.03,Rain,Light Rain,0,2013-02-26 22:15:00
4:35 PM,46.4,42.8,87,29.42,10.0,SSW,5.8,-,0.03,,Overcast,200,2013-02-26 22:35:00
4:55 PM,46.4,42.8,87,29.42,10.0,SSW,5.8,-,N/A,,Overcast,210,2013-02-26 22:55:00
5:15 PM,46.4,44.6,93,29.43,10.0,SW,4.6,-,N/A,,Overcast,230,2013-02-26 23:15:00
5:35 PM,44.6,41.0,87,29.45,10.0,SSW,8.1,-,N/A,Rain,Light Rain,210,2013-02-26 23:35:00
5:55 PM,44.6,41.0,87,29.46,10.0,SSW,6.9,-,N/A,Rain,Rain,210,2013-02-26 23:55:00
6:15 PM,44.6,41.0,87,29.46,10.0,SSW,6.9,-,N/A,,Overcast,210,2013-02-27 00:15:00
6:35 PM,44.6,42.8,93,29.47,10.0,SSW,6.9,-,N/A,,Overcast,200,2013-02-27 00:35:00
6:55 PM,44.6,42.8,93,29.48,10.0,South,4.6,-,N/A,,Overcast,180,2013-02-27 00:55:00
7:15 PM,42.8,42.8,100,29.48,10.0,SSW,5.8,-,N/A,,Overcast,200,2013-02-27 01:15:00
7:35 PM,44.6,41.0,87,29.48,10.0,South,6.9,-,N/A,,Overcast,190,2013-02-27 01:35:00
7:55 PM,42.8,41.0,93,29.49,10.0,SSW,6.9,-,N/A,,Overcast,200,2013-02-27 01:55:00
8:15 PM,42.8,41.0,93,29.50,10.0,SSW,8.1,-,N/A,,Overcast,210,2013-02-27 02:15:00
8:35 PM,42.8,41.0,93,29.51,10.0,SSW,9.2,-,N/A,,Overcast,210,2013-02-27 02:35:00
8:55 PM,42.8,41.0,93,29.51,10.0,South,8.1,-,N/A,,Drizzle,190,2013-02-27 02:55:00
9:15 PM,42.8,41.0,93,-9999,10.0,SSW,4.6,-,N/A,,Overcast,210,2013-02-27 03:15:00
9:35 PM,42.8,42.8,100,29.52,10.0,SSW,5.8,-,N/A,,Overcast,210,2013-02-27 03:35:00
9:55 PM,42.8,42.8,100,29.53,10.0,West,13.8,-,N/A,,Overcast,260,2013-02-27 03:55:00
10:15 PM,41.0,39.2,93,29.54,7.0,West,11.5,19.6,N/A,,Overcast,260,2013-02-27 04:15:00
10:35 PM,39.2,37.4,93,29.55,10.0,West,16.1,21.9,N/A,,Overcast,270,2013-02-27 04:35:00
10:55 PM,39.2,37.4,93,29.56,5.0,WSW,15.0,18.4,N/A,,Overcast,250,2013-02-27 04:55:00
11:15 PM,37.4,37.4,100,29.57,10.0,West,12.7,-,N/A,,Overcast,260,2013-02-27 05:15:00
11:35 PM,37.4,35.6,93,29.57,10.0,West,12.7,21.9,N/A,,Overcast,260,2013-02-27 05:35:00
11:55 PM,37.4,35.6,93,29.58,10.0,WSW,12.7,19.6,N/A,,Overcast,250,2013-02-27 05:55:00